This is the latest recevied weather packets stored in our database for station/object N3SBK. If no packets are shown the sender has not sent any weather packets the latest 10 day(s).
| Time | Temp. | Humidity | Pressure | Rain* | Wind** | Luminosity | Snow |
|---|---|---|---|---|---|---|---|
| 1788039554 | 26.11° C | 49% | 1013.6 hPa | 0 mm | - | 37 W/m² | - |
| 1788039249 | 27.22° C | 48% | 1013.7 hPa | 0 mm | - | 42 W/m² | - |
| 1788038949 | 27.22° C | 47% | 1013.6 hPa | 0 mm | - | 218 W/m² | - |
| 1788038644 | 27.22° C | 47% | 1013.5 hPa | 0 mm | - | 232 W/m² | - |
| 1788038344 | 27.22° C | 45% | 1013.5 hPa | 0 mm | - | 248 W/m² | - |
| 1788038039 | 27.22° C | 47% | 1013.7 hPa | 0 mm | - | 253 W/m² | - |
| 1788037739 | 27.22° C | 45% | 1013.8 hPa | 0 mm | - | 265 W/m² | - |
| 1788037434 | 28.89° C | 45% | 1013.9 hPa | 0 mm | - | 283 W/m² | - |
| 1788037133 | 28.89° C | 44% | 1014.2 hPa | 0 mm | - | 298 W/m² | - |
| 1788036828 | 28.33° C | 44% | 1013.9 hPa | 0 mm | - | 316 W/m² | - |
| 1788036526 | 27.78° C | 45% | 1014 hPa | 0 mm | - | 323 W/m² | - |
| 1788036225 | 27.78° C | 43% | 1014.1 hPa | 0 mm | - | 338 W/m² | - |
| 1788035920 | 27.78° C | 43% | 1014.1 hPa | 0 mm | - | 352 W/m² | - |
| 1788035620 | 28.33° C | 43% | 1014.1 hPa | 0 mm | - | 372 W/m² | - |
| 1788035315 | 27.78° C | 46% | 1014.3 hPa | 0 mm | - | 382 W/m² | - |
| 1788035011 | 27.78° C | 48% | 1014.5 hPa | 0 mm | - | 395 W/m² | - |
| 1788034707 | 27.78° C | 47% | 1014.4 hPa | 0 mm | - | 411 W/m² | - |
| 1788034403 | 27.78° C | 42% | 1014.4 hPa | 0 mm | - | 425 W/m² | - |
| 1788034099 | 28.89° C | 40% | 1014.6 hPa | 0 mm | - | 436 W/m² | - |
| 1788033797 | 28.33° C | 43% | 1014.6 hPa | 0 mm | - | 450 W/m² | - |
| 1788033491 | 28.89° C | 42% | 1014.5 hPa | 0 mm | - | 459 W/m² | - |
| 1788033187 | 28.89° C | 39% | 1014.7 hPa | 0 mm | - | 475 W/m² | - |
| 1788032882 | 28.33° C | 40% | 1014.6 hPa | 0 mm | - | 490 W/m² | - |
| 1788032581 | 28.89° C | 38% | 1014.6 hPa | 0 mm | - | 499 W/m² | - |
| 1788032277 | 29.44° C | 40% | 1014.6 hPa | 0 mm | - | 512 W/m² | - |
* Rain latest hour (hover to see other rain measurements)
** Current wind speed in m/s (hover to see current wind gust speed)